(248295) = 2005 LY3

Discovered at Reedy Creek on 2005-06-04 by J. Broughton.

Orbit

Orbit type: Main Belt

Note: WebGL enabled browser required.

epoch2023-02-25.0
epoch JD2460000.5
perihelion date2019-11-02.96308
perihelion JD2458790.46308
argument of perihelion (°)226.13937
ascending node (°)86.94368
inclination (°)15.72580
eccentricity0.2285713
perihelion distance (AU)2.1418170
Tisserand w.r.t. Jupiter3.2
ΔV w.r.t. Earth (km/sec)10.4
semimajor axis (AU)2.7764289
mean anomaly (°)257.79389
mean daily motion (°/day)0.21304630
aphelion distance (AU)3.411
period (years)4.63
P-vector [x]0.65610786
P-vector [y]-0.59104132
P-vector [z]-0.46924689
Q-vector [x]0.70446570
Q-vector [y]0.70266489
Q-vector [z]0.09995057
absolute magnitude15.92
phase slope0.15
uncertainty0
referenceMPO 745323
observations used414
oppositions15
arc length (days)7948
first opposition used2001
last opposition used2023
residual rms (arc-secs)0.75
perturbers coarse indicatorM-v
perturbers precise indicator003Ek
first observation date used2001-07-23.0
last observation date used2023-04-27.0
computer nameMPCLINUX
JD of orbit computation2456937.217686
perihelion JD uncertainty (days)1.0420E-04
argument of perihelion uncertainty (°)2.7217E-05
ascending node uncertainty (°)1.9024E-05
inclination uncertainty (°)6.4103E-06
eccentricity uncertainty 4.8134E-08
perihelion distance uncertainty (AU)1.4132E-07
Minimum Orbit Intersection Distances (in AU)
for orbit epoch: 2460000.5, reference: E2023-HN3
Mercury1.70984
Venus1.42479
Earth1.156
Mars0.76613
Jupiter1.92331
Saturn5.7846
Uranus15.198
Neptune26.9025

Observations

421 total observations over interval: 2001 07 23.45373 – 2023 04 27.272413
These data are available for download (format description).

Date (UT) J2000 RA J2000 Dec Magn Location Ref
2001 07 23.45373 00 57 15.05 -16 48 39.5 20.1   644 – Palomar Mountain/NEAT MPS 137099
2001 07 23.46522 00 57 15.58 -16 48 43.2 20.2   644 – Palomar Mountain/NEAT MPS 137099
2001 07 23.47550 00 57 16.10 -16 48 46.2 20.8   644 – Palomar Mountain/NEAT MPS 137099
2001 08 24.58574 01 08 49.86 -20 49 44.1 20.6   608 – Haleakala-AMOS MPS 137099
2001 08 24.59628 01 08 49.78 -20 49 50.2 20.3   608 – Haleakala-AMOS MPS 137099
2001 08 24.60706 01 08 49.62 -20 49 55.9 20.1   608 – Haleakala-AMOS MPS 137099
2001 09 11.41582 01 01 11.44 -23 18 31.2 19.1   704 – Lincoln Laboratory ETS, New Mexico MPS 137099
2001 09 11.43021 01 01 10.80 -23 18 37.8 19.9   704 – Lincoln Laboratory ETS, New Mexico MPS 137099
2001 09 11.44457 01 01 10.18 -23 18 44.4 19.6   704 – Lincoln Laboratory ETS, New Mexico MPS 137099
2001 09 11.45896 01 01 09.64 -23 18 50.6 19.8   704 – Lincoln Laboratory ETS, New Mexico MPS 137099
2001 09 11.47332 01 01 08.96 -23 18 57.7 19.3   704 – Lincoln Laboratory ETS, New Mexico MPS 137099
2001 09 29.58165 00 46 05.67 -24 46 54.0 20.4   608 – Haleakala-AMOS MPS 137099
2001 09 29.59230 00 46 05.07 -24 46 55.5 20.6   608 – Haleakala-AMOS MPS 137099
2001 09 29.60303 00 46 04.44 -24 46 56.7 20.6   608 – Haleakala-AMOS MPS 137099
2005 06 02.28020 16 26 42.79 -13 00 59.0 18.2 V 703 – Catalina Sky Survey MPS 135997
2005 06 02.28668 16 26 42.39 -13 01 01.0 18.1 V 703 – Catalina Sky Survey MPS 135997
2005 06 02.29325 16 26 41.92 -13 01 02.8 18.3 V 703 – Catalina Sky Survey MPS 135997
2005 06 02.29966 16 26 41.53 -13 01 05.0 18.4 V 703 – Catalina Sky Survey MPS 135997
2005 06 02.67193 16 26 18.15 -13 02 49.4 18.6 R E12 – Siding Spring Survey MPS 135997
2005 06 02.67960 16 26 17.66 -13 02 51.3 17.9 R E12 – Siding Spring Survey MPS 135997
2005 06 02.68728 16 26 17.29 -13 02 54.0 18.6 R E12 – Siding Spring Survey MPS 135997
2005 06 04.54645 16 24 21.69 -13 12 22.3 18.5 V 428 – Reedy Creek MPS 135997
2005 06 04.57177 16 24 20.06 -13 12 30.3 18.5 V 428 – Reedy Creek MPS 135997
2005 06 05.27361 16 23 36.55 -13 16 16.0 18.5   704 – Lincoln Laboratory ETS, New Mexico MPS 135997
2005 06 05.28412 16 23 35.88 -13 16 19.8 18.5   704 – Lincoln Laboratory ETS, New Mexico MPS 135997
2005 06 05.29464 16 23 35.18 -13 16 21.8 18.7   704 – Lincoln Laboratory ETS, New Mexico MPS 135997
2005 06 05.30512 16 23 34.49 -13 16 26.3 18.7   704 – Lincoln Laboratory ETS, New Mexico MPS 135997
2005 06 05.48149 16 23 23.77 -13 17 15.7 18.8 V 428 – Reedy Creek MPS 135997
2005 06 05.50103 16 23 22.54 -13 17 21.6 18.8 V 428 – Reedy Creek MPS 135997
2005 06 06.28019 16 22 34.20 -13 21 36.0 19.0 V 691 – Steward Observatory, Kitt Peak-Spacewatch MPS 135997
2005 06 06.29752 16 22 33.09 -13 21 41.6 19.0 V 691 – Steward Observatory, Kitt Peak-Spacewatch MPS 135997
2005 06 06.35939 16 22 29.12 -13 22 01.4 19.1 V 691 – Steward Observatory, Kitt Peak-Spacewatch MPS 135997
2005 06 07.54189 16 21 16.48 -13 28 19.5 18.7 V 428 – Reedy Creek MPS 136568
2005 06 07.57818 16 21 14.14 -13 28 31.7 18.9 V 428 – Reedy Creek MPS 136568
2005 06 07.63606 16 21 10.57 -13 28 51.2 18.3 V 428 – Reedy Creek MPS 136568
2005 06 10.30373 16 18 28.70 -13 43 53.4 19.1 V 691 – Steward Observatory, Kitt Peak-Spacewatch MPS 136568
2005 06 10.32116 16 18 27.63 -13 43 59.3 18.9 V 691 – Steward Observatory, Kitt Peak-Spacewatch MPS 136568
2005 06 10.33857 16 18 26.46 -13 44 05.9 18.8 V 691 – Steward Observatory, Kitt Peak-Spacewatch MPS 136568
2005 06 16.24813 16 12 45.46 -14 19 29.9 19.1 V 691 – Steward Observatory, Kitt Peak-Spacewatch MPS 136568
2005 06 16.26555 16 12 44.45 -14 19 36.4 19.1 V 691 – Steward Observatory, Kitt Peak-Spacewatch MPS 136568
2005 06 16.28296 16 12 43.47 -14 19 42.8 19.2 V 691 – Steward Observatory, Kitt Peak-Spacewatch MPS 136568
2005 06 23.27264 16 06 46.77 -15 05 13.2 18.8   644 – Palomar Mountain/NEAT MPS 137099
2005 06 23.29507 16 06 45.68 -15 05 22.2 18.7   644 – Palomar Mountain/NEAT MPS 137099
2005 06 23.31880 16 06 44.52 -15 05 31.8 18.5   644 – Palomar Mountain/NEAT MPS 137099
2005 06 27.17321 16 03 56.44 -15 32 05.2 19.3 V 691 – Steward Observatory, Kitt Peak-Spacewatch MPS 137099
2005 06 27.18871 16 03 55.78 -15 32 11.7 19.3 V 691 – Steward Observatory, Kitt Peak-Spacewatch MPS 137099
2005 06 27.20421 16 03 55.13 -15 32 18.2 19.1 V 691 – Steward Observatory, Kitt Peak-Spacewatch MPS 137099
2006 10 17.36295 03 50 28.82 +03 21 10.1 19.7 V 703 – Catalina Sky Survey MPS 182978
2006 10 17.36935 03 50 28.53 +03 21 10.6 19.4 V 703 – Catalina Sky Survey MPS 182978
2006 10 17.37578 03 50 28.24 +03 21 10.3 19.7 V 703 – Catalina Sky Survey MPS 182978
2006 10 17.38216 03 50 27.99 +03 21 08.9 19.8 V 703 – Catalina Sky Survey MPS 182978
2006 11 13.25168 03 26 17.84 +03 12 38.9 19.5 V 703 – Catalina Sky Survey MPS 187016
2006 11 13.25856 03 26 17.37 +03 12 41.9 19.5 V 703 – Catalina Sky Survey MPS 187016
2006 11 13.26547 03 26 16.90 +03 12 42.5 20.0 V 703 – Catalina Sky Survey MPS 187016
2006 11 13.27234 03 26 16.47 +03 12 43.6 19.4 V 703 – Catalina Sky Survey MPS 187016
2006 11 19.26740 03 20 12.87 +03 22 40.4 19.4 V 703 – Catalina Sky Survey MPS 188706
2006 11 19.27399 03 20 12.40 +03 22 40.9 19.6 V 703 – Catalina Sky Survey MPS 188706
2006 11 19.28064 03 20 12.01 +03 22 42.6 19.5 V 703 – Catalina Sky Survey MPS 188706
2006 11 19.28726 03 20 11.61 +03 22 43.2 19.7 V 703 – Catalina Sky Survey MPS 188706
2007 12 19.33823 08 50 35.08 +28 21 58.2 20.8 V G96 – Mt. Lemmon Survey MPS 231804
2007 12 19.34520 08 50 34.90 +28 22 00.9 21.1 V G96 – Mt. Lemmon Survey MPS 231804
2007 12 19.35214 08 50 34.69 +28 22 03.9 20.7 V G96 – Mt. Lemmon Survey MPS 231804
2007 12 19.35903 08 50 34.51 +28 22 06.4 20.9 V G96 – Mt. Lemmon Survey MPS 231804
2008 01 19.21322 08 27 27.46 +31 53 21.4 20.5 V G96 – Mt. Lemmon Survey MPS 235054
2008 01 19.21809 08 27 27.10 +31 53 23.4 21.0 V G96 – Mt. Lemmon Survey MPS 235054
2008 01 19.22292 08 27 26.82 +31 53 25.2 20.2 V G96 – Mt. Lemmon Survey MPS 235054
2008 01 19.22781 08 27 26.56 +31 53 26.3 19.9 V G96 – Mt. Lemmon Survey MPS 235054
2010 04 23.14878 20 26 00.62 -22 15 43.1   C51 – WISE MPS 341796
2010 04 23.545698 20 26 37.958 -22 16 23.56   C51 – WISE MPS 926848
2010 04 23.678002 20 26 50.05 -22 16 38.8   C51 – WISE MPS 341796
2010 04 23.678130 20 26 50.09 -22 16 38.4   C51 – WISE MPS 341796
2010 04 23.810306 20 27 02.40 -22 16 53.9   C51 – WISE MPS 341796
2010 04 23.810433 20 27 02.41 -22 16 52.2   C51 – WISE MPS 341796
2010 04 23.876522 20 27 08.58 -22 16 59.8   C51 – WISE MPS 341796
2010 04 23.942737 20 27 14.72 -22 17 06.4   C51 – WISE MPS 341796
2010 04 24.008826 20 27 20.83 -22 17 14.6   C51 – WISE MPS 341796
2010 04 24.075042 20 27 27.06 -22 17 21.7   C51 – WISE MPS 341796
2010 04 24.538043 20 28 10.04 -22 18 12.3   C51 – WISE MPS 341796
2010 04 24.538170 20 28 10.01 -22 18 11.9   C51 – WISE MPS 341796
2010 04 24.670475 20 28 22.29 -22 18 24.8   C51 – WISE MPS 341796
2010 04 24.802779 20 28 34.56 -22 18 40.1   C51 – WISE MPS 341796
2010 07 17.75049 21 28 35.94 -33 46 41.9 18.4 V E12 – Siding Spring Survey MPS 341796
2010 07 17.76461 21 28 35.50 -33 46 55.5 18.1 V E12 – Siding Spring Survey MPS 341796
2010 07 17.77879 21 28 35.18 -33 47 04.5 18.0 V E12 – Siding Spring Survey MPS 341796
2010 07 17.79301 21 28 34.71 -33 47 16.8 18.7 V E12 – Siding Spring Survey MPS 341796
2010 08 07.53037 21 14 38.40 -37 59 40.3 18.3 V E12 – Siding Spring Survey MPS 343722
2010 08 07.53757 21 14 38.00 -37 59 44.6 18.4 V E12 – Siding Spring Survey MPS 343722
2010 08 07.54484 21 14 37.60 -37 59 48.8 18.2 V E12 – Siding Spring Survey MPS 343722
2010 08 07.55220 21 14 37.24 -37 59 53.0 18.4 V E12 – Siding Spring Survey MPS 343722
2010 09 06.54603 20 55 53.11 -40 06 29.0 19.0 V E12 – Siding Spring Survey MPS 347848
2010 09 06.55465 20 55 52.93 -40 06 27.7 18.8 V E12 – Siding Spring Survey MPS 347848
2011 11 30.52692 05 38 31.053 +20 15 14.47 20.6 g F51 – Pan-STARRS 1, Haleakala MPS 403711
2011 11 30.53964 05 38 30.292 +20 15 17.73 20.4 g F51 – Pan-STARRS 1, Haleakala MPS 403711
2011 12 24.28226 05 14 18.02 +21 31 46.7 18.8 V G96 – Mt. Lemmon Survey MPS 405801
2011 12 24.28973 05 14 17.55 +21 31 48.8 19.3 V G96 – Mt. Lemmon Survey MPS 405801
